Tracking 18856 objects as of 11-Dec-2017
HD Live streaming from Space Station
objects crossing your sky now

COSMOS 2286

Track COSMOS 2286 now!
COSMOS 2286 is classified as:


NORAD ID: 23194
Int'l Code: 1994-048A
Perigee: 3,753.8 km
Apogee: 36,662.9 km
Inclination: 67.7 °
Period: 718.7 minutes
Semi major axis: 26579 km
RCS: 14.1879 m2 (large)
Launch date: August 5, 1994
Source: Commonwealth of Independent States (former USSR) (CIS)
Launch site: PLESETSK MISSILE AND SPACE COMPLEX (PKMTR)
aabbcc
Your satellite tracking list
Your tracking list is empty




NASA's NSSDC Master Catalog

Two Line Element Set (TLE):
1 23194U 94048A   17344.88193188  .00000547  00000-0  00000+0 0  9994
2 23194  67.7010 358.6448 6190723 177.4887 188.4449  2.00348311171076
Source of the keplerian elements: AFSPC